Location: Quaker Farms
(41.4276°N, 73.1557°W)
Time: 01:11:30
(UTC+00:00)

Altair - Pass Details

Date: 15 June 2021
Orbit: 1501 x 1682 km, 47.2° (Epoch: 23 July)

Event Time Altitude Azimuth Distance (km) Brightness Sun altitude
Rises 17:11:49 0° 196° (SSW) 4,653 10.3 71.5°
Reaches altitude 10° 17:15:18 10° 186° (S) 3,694 9.9 71.3°
Maximum altitude 17:22:58 30° 130° (SE) 2,540 9.2 70.9°
Drops below altitude 10° 17:30:52 10° 75° (ENE) 3,822 9.6 70.3°
Sets 17:34:31 0° 65° (ENE) 4,839 9.9 70.0°
